This demonstration page uses our WeatherBlox Daily Observations layout. Learn more.

Left ArrowRight Arrow

Hourly Observations for August 18, 2021

Temp ( °F °C ) Dew Point ( °F °C ) Humidity (%) Winds ( mph kmh ) Pressure ( in mb ) Visibility ( mi km ) Precip ( " mm )
12:56 am 00:56 Clear 71 21.7 66 18.9 84 84 S 12 19 29.85 1011 10 16 0.00 0.00
1:56 am 01:56 Clear 70 21.1 66 18.9 87 87 SSE 10 17 29.85 1011 10 16 0.00 0.00
2:56 am 02:56 Clear 69 20.6 66 18.9 90 90 S 10 17 29.85 1011 10 16 0.00 0.00
3:56 am 03:56 Clear 67 19.4 65 18.3 93 93 SSE 9 15 29.86 1011 10 16 0.00 0.00
4:56 am 04:56 Clear 66 18.9 65 18.3 96 96 SSE 8 13 29.87 1012 10 16 0.00 0.00
5:56 am 05:56 Clear 66 18.9 65 18.3 96 96 SSE 12 19 29.87 1011 10 16 0.00 0.00
6:56 am 06:56 Sunny 66 18.9 65 18.3 96 96 SSE 12 19 29.88 1012 8 13 0.00 0.00
7:16 am 07:16 Mostly Sunny 66 19 64 18 94 94 SSE 10 17 29.88 1012 7 11 0.00 0.00
7:31 am 07:31 Mostly Cloudy with Mist and Fog 66 19 64 18 94 94 S 8 13 29.88 1012 6 10 0.00 0.00
7:56 am 07:56 Cloudy 67 19.4 66 18.9 97 97 S 10 17 29.90 1013 7 11 0.00 0.00
8:56 am 08:56 Cloudy 69 20.6 67 19.4 93 93 S 13 20 29.91 1013 9 14 0.00 0.00
9:19 am 09:19 Cloudy 70 21 66 19 88 88 S 14 22 29.88 1012 10 16 0.00 0.00
9:56 am 09:56 Cloudy 71 21.7 67 19.4 87 87 SSE 14 22 29.92 1013 10 16 0.00 0.00
10:56 am 10:56 Cloudy 74 23.3 68 20 82 82 SSE 16 26 29.93 1013 10 16 0.00 0.00
11:56 am 11:56 Mostly Cloudy 76 24.4 68 20 77 77 S 14 22 29.94 1014 10 16 0.00 0.00
12:17 pm 12:17 Partly Cloudy 79 26 70 21 74 74 SSE 14 22 29.87 1012 10 16 0.00 0.00
12:56 pm 12:56 Partly Cloudy 80 26.7 69 20.6 69 69 SSE 16 26 29.93 1014 10 16 0.00 0.00
1:48 pm 13:48 Mostly Cloudy 81 27 70 21 70 70 SSE 18 30 29.86 1011 10 16 0.00 0.00
1:56 pm 13:56 Mostly Cloudy 81 27.2 70 21.1 69 69 SSE 17 28 29.93 1014 10 16 0.00 0.00
2:56 pm 14:56 Mostly Cloudy 83 28.3 70 21.1 65 65 SSE 18 30 29.92 1013 10 16 0.00 0.00
3:56 pm 15:56 Mostly Cloudy 83 28.3 70 21.1 65 65 SSE 17 28 29.91 1013 10 16 0.00 0.00
4:38 pm 16:38 Mostly Cloudy 82 28 70 21 66 66 SSE 15 24 29.83 1010 10 16 0.00 0.00
4:56 pm 16:56 Partly Cloudy 83 28.3 69 20.6 63 63 SE 22 35 29.91 1013 10 16 0.00 0.00
5:56 pm 17:56 Partly Cloudy 82 27.8 68 20 63 63 SSE 17 28 29.92 1013 10 16 0.00 0.00
6:56 pm 18:56 Sunny 79 26.1 68 20 69 69 SE 13 20 29.91 1013 10 16 0.00 0.00
7:56 pm 19:56 Sunny 76 24.4 68 20 77 77 SE 10 17 29.92 1013 10 16 0.00 0.00
8:56 pm 20:56 Clear 73 22.8 67 19.4 81 81 SE 8 13 29.92 1013 10 16 0.00 0.00
9:56 pm 21:56 Clear 71 21.7 67 19.4 87 87 ESE 9 15 29.94 1014 10 16 0.00 0.00
10:56 pm 22:56 Clear 71 21.7 67 19.4 87 87 SE 7 11 29.95 1014 10 16 0.00 0.00
11:56 pm 23:56 Mostly Cloudy 70 21.1 67 19.4 90 90 SE 9 15 29.96 1015 10 16 0.00 0.00

Powered by AerisWeather